Index of /20260506/WXO-DD/model_gdps/15km/00/032
Name Last modified Size Description
Parent Directory -
20260506T00Z_MSC_GDPS_AirTemp_AGL-120m_LatLon0.15_PT032H.grib2 2026-05-06 03:48 900K
20260506T00Z_MSC_GDPS_AirTemp_AGL-2m_LatLon0.15_PT032H.grib2 2026-05-06 03:48 1.0M
20260506T00Z_MSC_GDPS_AirTemp_AGL-40m_LatLon0.15_PT032H.grib2 2026-05-06 03:48 802K
20260506T00Z_MSC_GDPS_AirTemp_AGL-80m_LatLon0.15_PT032H.grib2 2026-05-06 03:48 908K
20260506T00Z_MSC_GDPS_Albedo_Sfc_LatLon0.15_PT032H.grib2 2026-05-06 03:48 243K
20260506T00Z_MSC_GDPS_ConvectivePrecip-Accum_Sfc_LatLon0.15_PT032H.grib2 2026-05-06 03:48 2.5M
20260506T00Z_MSC_GDPS_DewPointDepression_AGL-2m_LatLon0.15_PT032H.grib2 2026-05-06 03:48 766K
20260506T00Z_MSC_GDPS_DewPoint_AGL-2m_LatLon0.15_PT032H.grib2 2026-05-06 03:48 609K
20260506T00Z_MSC_GDPS_DownwardLongwaveRadiationFlux-Accum_Sfc_LatLon0.15_PT032H.grib2 2026-05-06 03:48 774K
20260506T00Z_MSC_GDPS_DownwardShortwaveRadiationFlux-Accum_Sfc_LatLon0.15_PT032H.grib2 2026-05-06 03:48 921K
20260506T00Z_MSC_GDPS_FreezingRain-Accum1h_Sfc_LatLon0.15_PT032H.grib2 2026-05-06 03:48 38K
20260506T00Z_MSC_GDPS_FreezingRain-Accum_Sfc_LatLon0.15_PT032H.grib2 2026-05-06 03:48 181K
20260506T00Z_MSC_GDPS_IcePellets-Accum1h_Sfc_LatLon0.15_PT032H.grib2 2026-05-06 03:48 8.5K
20260506T00Z_MSC_GDPS_IcePellets-Accum_Sfc_LatLon0.15_PT032H.grib2 2026-05-06 03:48 36K
20260506T00Z_MSC_GDPS_LatentHeatNetFlux_Sfc_LatLon0.15_PT032H.grib2 2026-05-06 03:48 564K
20260506T00Z_MSC_GDPS_NetLongwaveRadiationFlux-Accum_Sfc_LatLon0.15_PT032H.grib2 2026-05-06 03:48 1.0M
20260506T00Z_MSC_GDPS_NetShortwaveRadiationFlux-Accum_Sfc_LatLon0.15_PT032H.grib2 2026-05-06 03:48 971K
20260506T00Z_MSC_GDPS_O3MixingRatio_Sfc_LatLon0.15_PT032H.grib2 2026-05-06 04:43 2.3M
20260506T00Z_MSC_GDPS_O3_EAtm_LatLon0.15_PT032H.grib2 2026-05-06 04:43 2.5M
20260506T00Z_MSC_GDPS_PlanetaryBoundaryLayerHeight_Sfc_LatLon0.15_PT032H.grib2 2026-05-06 03:48 2.5M
20260506T00Z_MSC_GDPS_Precip-Accum1h_Sfc_LatLon0.15_PT032H.grib2 2026-05-06 03:48 3.3M
20260506T00Z_MSC_GDPS_Precip-Accum_Sfc_LatLon0.15_PT032H.grib2 2026-05-06 03:48 4.6M
20260506T00Z_MSC_GDPS_PrecipRate_Sfc_LatLon0.15_PT032H.grib2 2026-05-06 03:48 3.1M
20260506T00Z_MSC_GDPS_Pressure_MSL_LatLon0.15_PT032H.grib2 2026-05-06 03:48 716K
20260506T00Z_MSC_GDPS_Pressure_Sfc_LatLon0.15_PT032H.grib2 2026-05-06 03:48 1.1M
20260506T00Z_MSC_GDPS_RadiativeTemp_Sfc_LatLon0.15_PT032H.grib2 2026-05-06 03:48 669K
20260506T00Z_MSC_GDPS_Rain-Accum1h_Sfc_LatLon0.15_PT032H.grib2 2026-05-06 03:48 1.5M
20260506T00Z_MSC_GDPS_Rain-Accum_Sfc_LatLon0.15_PT032H.grib2 2026-05-06 03:48 3.5M
20260506T00Z_MSC_GDPS_RelativeHumidity_AGL-2m_LatLon0.15_PT032H.grib2 2026-05-06 03:48 1.0M
20260506T00Z_MSC_GDPS_Runoff-Accum_Sfc_LatLon0.15_PT032H.grib2 2026-05-06 03:48 103K
20260506T00Z_MSC_GDPS_SensibleHeatNetFlux_Sfc_LatLon0.15_PT032H.grib2 2026-05-06 03:48 499K
20260506T00Z_MSC_GDPS_Snow-Accum1h_Sfc_LatLon0.15_PT032H.grib2 2026-05-06 03:48 1.1M
20260506T00Z_MSC_GDPS_Snow-Accum_Sfc_LatLon0.15_PT032H.grib2 2026-05-06 03:48 1.8M
20260506T00Z_MSC_GDPS_SnowDepth_Sfc_LatLon0.15_PT032H.grib2 2026-05-06 03:48 1.7M
20260506T00Z_MSC_GDPS_SoilTemp_DBS-0to10cm_LatLon0.15_PT032H.grib2 2026-05-06 03:48 502K
20260506T00Z_MSC_GDPS_SoilTemp_Sfc_LatLon0.15_PT032H.grib2 2026-05-06 03:48 588K
20260506T00Z_MSC_GDPS_SoilVolumetricWaterContent_DBS-0to10cm_LatLon0.15_PT032H.grib2 2026-05-06 03:48 594K
20260506T00Z_MSC_GDPS_SoilVolumetricWaterContent_DBS-0to1cm_LatLon0.15_PT032H.grib2 2026-05-06 03:48 654K
20260506T00Z_MSC_GDPS_SpecificHumidity_AGL-120m_LatLon0.15_PT032H.grib2 2026-05-06 03:48 1.1M
20260506T00Z_MSC_GDPS_SpecificHumidity_AGL-2m_LatLon0.15_PT032H.grib2 2026-05-06 03:48 1.2M
20260506T00Z_MSC_GDPS_SpecificHumidity_AGL-40m_LatLon0.15_PT032H.grib2 2026-05-06 03:48 1.1M
20260506T00Z_MSC_GDPS_SpecificHumidity_AGL-80m_LatLon0.15_PT032H.grib2 2026-05-06 03:48 1.1M
20260506T00Z_MSC_GDPS_SpecificHumidity_Sfc_LatLon0.15_PT032H.grib2 2026-05-06 03:48 678K
20260506T00Z_MSC_GDPS_TotalCloudCover_Sfc_LatLon0.15_PT032H.grib2 2026-05-06 03:48 834K
20260506T00Z_MSC_GDPS_UVIndex-ClearSky_Sfc_LatLon0.15_PT032H.grib2 2026-05-06 04:43 1.1M
20260506T00Z_MSC_GDPS_UVIndex_Sfc_LatLon0.15_PT032H.grib2 2026-05-06 04:43 1.5M
20260506T00Z_MSC_GDPS_UpwardLongwaveRadiationFlux_NTAtm_LatLon0.15_PT032H.grib2 2026-05-06 03:48 839K
20260506T00Z_MSC_GDPS_WindDir_AGL-10m_LatLon0.15_PT032H.grib2 2026-05-06 03:48 1.3M
20260506T00Z_MSC_GDPS_WindDir_AGL-120m_LatLon0.15_PT032H.grib2 2026-05-06 03:48 1.3M
20260506T00Z_MSC_GDPS_WindDir_AGL-40m_LatLon0.15_PT032H.grib2 2026-05-06 03:48 1.4M
20260506T00Z_MSC_GDPS_WindDir_AGL-80m_LatLon0.15_PT032H.grib2 2026-05-06 03:48 1.3M
20260506T00Z_MSC_GDPS_WindDir_IsbL-0700_LatLon0.15_PT032H.grib2 2026-05-06 03:48 1.6M
20260506T00Z_MSC_GDPS_WindGust-Max_AGL-10m_LatLon0.15_PT032H.grib2 2026-05-06 03:48 1.8M
20260506T00Z_MSC_GDPS_WindGust-Min_AGL-10m_LatLon0.15_PT032H.grib2 2026-05-06 03:48 2.2M
20260506T00Z_MSC_GDPS_WindGust_AGL-10m_LatLon0.15_PT032H.grib2 2026-05-06 03:48 2.1M
20260506T00Z_MSC_GDPS_WindSpeed_AGL-10m_LatLon0.15_PT032H.grib2 2026-05-06 03:48 1.1M
20260506T00Z_MSC_GDPS_WindSpeed_AGL-120m_LatLon0.15_PT032H.grib2 2026-05-06 03:48 1.2M
20260506T00Z_MSC_GDPS_WindSpeed_AGL-40m_LatLon0.15_PT032H.grib2 2026-05-06 03:48 1.2M
20260506T00Z_MSC_GDPS_WindSpeed_AGL-80m_LatLon0.15_PT032H.grib2 2026-05-06 03:48 1.2M
20260506T00Z_MSC_GDPS_WindSpeed_IsbL-0700_LatLon0.15_PT032H.grib2 2026-05-06 03:48 1.5M
20260506T00Z_MSC_GDPS_WindU_AGL-10m_LatLon0.15_PT032H.grib2 2026-05-06 03:48 1.3M
20260506T00Z_MSC_GDPS_WindU_AGL-120m_LatLon0.15_PT032H.grib2 2026-05-06 03:48 1.0M
20260506T00Z_MSC_GDPS_WindU_AGL-40m_LatLon0.15_PT032H.grib2 2026-05-06 03:48 953K
20260506T00Z_MSC_GDPS_WindU_AGL-80m_LatLon0.15_PT032H.grib2 2026-05-06 03:48 957K
20260506T00Z_MSC_GDPS_WindU_IsbL-0700_LatLon0.15_PT032H.grib2 2026-05-06 03:48 1.2M
20260506T00Z_MSC_GDPS_WindV_AGL-10m_LatLon0.15_PT032H.grib2 2026-05-06 03:48 1.3M
20260506T00Z_MSC_GDPS_WindV_AGL-120m_LatLon0.15_PT032H.grib2 2026-05-06 03:48 1.0M
20260506T00Z_MSC_GDPS_WindV_AGL-40m_LatLon0.15_PT032H.grib2 2026-05-06 03:48 952K
20260506T00Z_MSC_GDPS_WindV_AGL-80m_LatLon0.15_PT032H.grib2 2026-05-06 03:48 1.0M
20260506T00Z_MSC_GDPS_WindV_IsbL-0700_LatLon0.15_PT032H.grib2 2026-05-06 03:48 1.2M